Flag for Germany Weather past 2 weeks in Wiesbaden, Hesse, Germany

Now
93 °F

Sunny.


Feels Like: 92 °F
Forecast: 61 / 71 °F
Wind: 10 mph from South

Location: Wiesbaden Airport

Current Time: Jul 7, 2015 at 4:21:33 PM

Latest Report: Jul 7, 2015 at 3:58 PM


Visibility: N/A

Pressure: 29.75 "Hg

Humidity: 30%

Dew point: 57 °F

Location of WiesbadenLocation

Historic Weather in Wiesbaden — Graph

°F

Wiesbaden temperature yesterday

Maximum temperature yesterday: 84 °F (at 5:58 PM)
Minimum temperature yesterday: 63 °F (at 3:58 AM)
Average temperature yesterday: 74 °F

Past Weeks' High & Low Weather Summary

 TemperatureHumidityPressure
High100 °F (Jul 5, 5:58 PM)100% (Jun 22, 10:01 PM)30.24 "Hg (Jun 22, 10:01 PM)
Low48 °F (Jun 23, 4:58 AM)22% (Jul 5, 5:58 PM)29.68 "Hg (Jun 23, 12:04 AM)
Average72 °F61%30.08 "Hg
* Reported Jun 22 2:03 PM — Jul 7 2:58 PM, Wiesbaden, Weather by CustomWeather, © 2015

Note: Actual official high and low records may vary slightly from our data, if they occured in-between our weather recording intervals... More about our weather records

Advertising

Wiesbaden weather history for previous 24 hours

 ConditionsComfort  
Time TempWeatherWind HumidityBarometerVisibility
2:58 PM
Tue, Jul 7
91 °FSunny.10 mph32%29.80 "HgN/A
1:58 PM90 °FPassing clouds.6 mph29%29.83 "HgN/A
12:58 PM88 °FSunny.1 mph34%29.85 "HgN/A
11:58 AM86 °FSunny.6 mph35%29.87 "HgN/A
10:58 AM82 °FSunny.5 mph35%29.89 "HgN/A
9:58 AM79 °FSunny.3 mph37%29.93 "HgN/A
8:58 AM75 °FPartly sunny.3 mph41%29.93 "HgN/A
7:58 AM70 °FSunny.No wind53%29.96 "HgN/A
6:58 AM66 °FSunny.2 mph60%29.98 "HgN/A
5:58 AM58 °FClear.No wind74%29.98 "HgN/A
4:58 AM61 °FClear.1 mph68%29.99 "HgN/A
3:58 AM61 °FClear.1 mph68%30.00 "HgN/A
2:58 AM61 °FClear.2 mph68%30.02 "HgN/A
1:58 AM65 °FClear.No wind61%30.03 "HgN/A
12:58 AM66 °FClear.No wind60%30.04 "HgN/A
11:58 PM
Mon, Jul 6
72 °FClear.2 mph47%30.05 "HgN/A
10:58 PM73 °FClear.6 mph44%30.06 "HgN/A
9:58 PM76 °FSunny.5 mph39%30.06 "HgN/A
8:58 PM79 °FSunny.5 mph34%30.06 "HgN/A
7:58 PM84 °FSunny.6 mph27%30.06 "HgN/A
6:58 PM83 °FSunny.6 mph26%30.07 "HgN/A
5:58 PM84 °FSunny.3 mph25%30.09 "HgN/A
4:58 PM82 °FSunny.8 mph25%30.10 "HgN/A
Weather by CustomWeather, © 2015

See weather overviewHow to use our weather pages